Location: Newark
(47.5833°N, 8.1500°E)
Time: 15:22:28
(UTC+00:00)

Tiros 1 - Pass Details

Date: 31 October 2020
Orbit: 630 x 664 km, 48.4° (Epoch: 29 November)

Event Time Altitude Azimuth Distance (km) Brightness Sun altitude
Exits shadow 03:49:12 87° 322° (NW) 636 6.9 -24.2°
Maximum altitude 03:49:14 88° 348° (NNW) 636 7.0 -24.2°
Drops below altitude 10° 03:53:52 10° 80° (E) 2,009 10.8 -23.4°
Sets 03:56:11 0° 81° (E) 2,918 12.0 -23.0°
